Weather History for CYMX - December, 2013

Change the Weather History Date:

Monday, December 16, 2013

  Actual Average Record
Temperature  
Mean Temperature -2 °F -  
Max Temperature 6 °F 26 °F 46 °F (2011)
Min Temperature -9 °F 13 °F -9 °F (2013)
Degree Days  
Heating Degree Days 66    
Moisture  
Dew Point -10 °F    
Average Humidity 69    
Maximum Humidity 85    
Minimum Humidity 55    
Precipitation  
Precipitation 0.00 in - - ()
Sea Level Pressure  
Sea Level Pressure 30.01 in    
Wind  
Wind Speed 8 mph ()    
Max Wind Speed 14 mph    
Max Gust Speed 20 mph    
Visibility 9.7 miles    
Events Snow    
Averages and records for this station are not official NWS values.
T = Trace of Precipitation, MM = Missing Value Source: Averaged Metar Reports

Daily Weather History Graph

Daily Weather History Graph

Search for Another Location

Airport or City:

Trip Planner

Search our weather history database for the weather conditions in past years. The results will help you decide how hot, cold, wet, or windy it might be!

Date:

Astronomy

Dec. 16, 2013 Rise Set
Actual Time 7:30 AM EST 4:12 PM EST
Civil Twilight 6:56 AM EST 4:47 PM EST
Nautical Twilight 6:18 AM EST 5:25 PM EST
Astronomical Twilight 5:42 AM EST 6:01 PM EST
Moon 4:04 PM EST (12/16) 6:34 AM EST (12/16)
Length of Visible Light 9h 50m
Length of Day
8h 41m
Full, 100% of the Moon is Illuminated
Dec 16
Full
Dec 17
Full
Dec 25
Last Quarter
Jan 1
New
Jan 7
First Quarter

Hourly Weather History & Observations

Time (EST) Temp. Windchill Dew Point Humidity Pressure Visibility Wind Dir Wind Speed Gust Speed Precip Events Conditions
12:00 AM 6.8 °F -4.8 °F 3.2 °F 85% 29.72 in 6.0 mi SW 6.9 mph - N/A Snow Light Snow
1:00 AM 5.0 °F -10.0 °F 1.4 °F 85% 29.73 in 10.0 mi WSW 10.4 mph - N/A Snow Light Snow
2:00 AM 5.0 °F -9.1 °F -0.4 °F 78% 29.75 in 15.0 mi West 9.2 mph - N/A   Mostly Cloudy
3:00 AM 3.2 °F -12.2 °F -2.2 °F 78% 29.78 in 25.0 mi WSW 10.4 mph 17.3 mph N/A   Mostly Cloudy
4:00 AM 1.4 °F -14.5 °F -5.8 °F 72% 29.81 in 25.0 mi WSW 10.4 mph 17.3 mph N/A   Partly Cloudy
5:00 AM -0.4 °F -16.7 °F -7.6 °F 72% 29.86 in 25.0 mi WSW 10.4 mph 17.3 mph N/A   Partly Cloudy
6:00 AM -4.0 °F -21.2 °F -9.4 °F 78% 29.89 in 25.0 mi WSW 10.4 mph 18.4 mph N/A   Clear
7:00 AM -5.8 °F -23.4 °F -11.2 °F 77% 29.92 in 25.0 mi WSW 10.4 mph - N/A   Clear
8:00 AM -5.8 °F -23.4 °F -13.0 °F 71% 29.96 in 45.0 mi WSW 10.4 mph - N/A   Partly Cloudy
9:00 AM -5.8 °F -23.4 °F -13.0 °F 71% 29.98 in 45.0 mi WSW 10.4 mph 19.6 mph N/A Snow Low Drifting Snow
10:00 AM -4.0 °F -19.0 °F -13.0 °F 65% 30.03 in 45.0 mi WSW 8.1 mph - N/A Snow Low Drifting Snow
11:00 AM -2.2 °F -18.9 °F -13.0 °F 60% 30.03 in 25.0 mi WSW 10.4 mph 17.3 mph N/A Snow Low Drifting Snow
12:00 PM -2.2 °F -19.9 °F -13.0 °F 60% 30.03 in 45.0 mi WSW 11.5 mph 19.6 mph N/A Snow Low Drifting Snow
1:00 PM -2.2 °F -21.5 °F -13.0 °F 60% 30.04 in 45.0 mi WSW 13.8 mph - N/A   Partly Cloudy
2:00 PM -0.4 °F -17.6 °F -13.0 °F 55% 30.07 in 8.0 mi West 11.5 mph 18.4 mph N/A Snow Ice Crystals
3:00 PM -0.4 °F -17.6 °F -13.0 °F 55% 30.10 in 25.0 mi SW 11.5 mph 19.6 mph N/A Snow Ice Crystals
4:00 PM -2.2 °F -18.9 °F -13.0 °F 60% 30.12 in 45.0 mi West 10.4 mph 19.6 mph N/A Snow Ice Crystals
5:00 PM -2.2 °F -16.8 °F -13.0 °F 60% 30.15 in 25.0 mi WSW 8.1 mph - N/A Snow Ice Crystals
6:00 PM -4.0 °F -16.3 °F -14.8 °F 60% 30.18 in 25.0 mi West 5.8 mph - N/A   Ice Crystals
7:00 PM -5.8 °F -16.7 °F -13.0 °F 71% 30.20 in 25.0 mi SW 4.6 mph - N/A   Clear
8:00 PM -5.8 °F -16.7 °F -14.8 °F 65% 30.23 in 25.0 mi WSW 4.6 mph - N/A   Clear
9:00 PM -7.6 °F -18.8 °F -14.8 °F 71% 30.24 in 25.0 mi WSW 4.6 mph - N/A   Clear
10:00 PM -9.4 °F -22.7 °F -16.6 °F 71% 30.26 in 25.0 mi WSW 5.8 mph - N/A   Clear
11:00 PM -9.4 °F -22.7 °F -14.8 °F 77% 30.28 in 25.0 mi WSW 5.8 mph - N/A   Clear